Probability
0 0 0 0 0 0 0 0 0 0 2 4 4 4 2 0 0 0 1 5 11 13 10 8 7 5 3 3 1 0 0 0 0 0 0 0 0 0 0 0 0 0 0 0 0 0 0 0 0
0 0 0 0 0 0 0 0 0 1 3 5 6 6 3 1 0 0 2 8 13 13 9 7 6 5 3 3 2 1 0 0 0 0 0 0 0 0 0 0 0 0 0 0 0 0 0 0 0
0 0 0 0 0 0 0 0 1 3 6 7 7 7 4 1 1 1 5 11 14 12 8 8 8 6 4 3 3 2 1 0 0 0 0 0 0 0 0 0 0 0 0 0 0 0 0 0 0
0 0 0 0 0 0 0 0 1 5 9 11 10 8 5 4 8 9 10 13 13 10 10 10 10 7 5 3 3 3 1 0 0 0 0 0 0 0 0 0 0 0 0 0 0 0 0 0 0
0 0 0 0 0 0 0 0 3 9 14 17 18 12 8 12 20 20 15 12 12 11 11 12 12 10 7 4 3 3 2 1 0 0 0 0 0 0 0 0 0 0 0 0 0 0 0 0 0
0 0 0 0 0 0 0 1 6 13 18 21 21 16 13 22 29 24 16 13 13 14 13 13 14 12 8 5 4 4 2 1 0 0 0 0 0 0 0 0 0 0 0 0 0 0 0 0 0
0 0 0 0 0 0 0 1 7 14 18 20 22 19 17 25 31 27 19 15 15 16 16 15 14 12 8 6 6 4 2 1 0 0 0 0 0 0 0 0 0 0 0 0 0 0 0 0 0
0 0 0 0 0 0 0 1 5 11 15 18 21 22 23 29 35 34 26 18 15 16 17 17 15 11 6 5 5 4 2 1 0 0 0 0 0 0 0 0 0 0 0 0 0 0 0 0 0
0 0 0 0 0 0 0 0 3 8 14 19 24 30 37 46 50 48 36 23 17 15 15 16 16 12 7 4 4 4 2 1 1 1 0 0 0 0 0 0 0 0 0 0 0 0 0 0 0
0 0 0 0 0 0 0 1 3 8 17 27 37 46 57 64 66 62 50 33 22 16 13 13 13 11 7 5 3 3 3 3 2 2 1 0 0 0 0 0 0 0 0 0 0 0 0 0 0
0 0 0 0 0 0 1 1 4 8 17 33 48 58 65 66 66 65 56 40 27 19 13 10 9 8 6 5 3 3 3 3 3 3 2 1 0 0 0 0 0 0 0 0 0 0 0 0 0
0 0 0 0 1 1 2 3 4 7 16 31 45 52 53 53 55 58 53 40 29 21 15 11 9 7 6 4 3 2 3 3 3 3 2 1 0 0 0 0 0 0 0 0 0 0 0 0 0
0 0 0 0 1 2 3 3 4 10 22 34 40 40 37 39 47 52 49 41 32 25 19 13 9 7 5 4 3 3 3 3 3 3 2 1 0 0 0 0 0 0 0 0 0 0 0 0 0
0 0 0 0 1 2 3 3 5 16 32 39 37 31 28 34 45 52 50 45 38 31 24 15 10 8 6 4 3 3 3 3 3 2 1 0 0 0 0 0 0 0 0 0 0 0 0 0 0
0 0 0 0 0 1 3 4 7 19 32 36 31 27 28 36 47 53 53 49 42 36 30 21 15 13 9 6 4 3 3 3 2 1 0 0 0 0 0 0 0 0 0 0 0 0 0 0 0
0 0 0 0 0 0 2 4 8 17 25 26 27 31 36 41 47 49 50 48 42 39 36 30 25 21 15 11 7 4 3 3 2 0 0 0 0 0 0 0 0 0 0 0 0 0 0 0 0
0 0 0 0 0 0 1 2 6 12 19 23 30 39 44 46 45 45 46 45 42 42 41 39 35 29 22 18 14 10 8 6 4 2 1 1 1 0 0 0 0 0 0 0 0 0 0 0 0
0 0 0 0 0 0 0 1 4 9 16 24 35 45 48 47 45 45 46 46 45 45 45 42 39 33 29 26 23 21 18 13 9 7 4 3 3 2 0 0 1 1 0 0 0 0 0 0 0
0 0 0 0 0 0 0 1 3 8 13 21 35 47 51 49 47 46 47 48 49 50 47 44 40 35 33 32 30 28 25 20 15 11 8 7 6 4 2 1 2 1 0 0 0 0 0 0 0
0 0 0 0 0 0 0 1 4 8 11 18 31 47 56 56 53 51 50 50 52 52 49 45 41 38 35 34 30 27 24 21 17 13 10 9 9 6 4 3 2 1 0 0 0 0 0 0 0
0 0 0 0 0 0 0 1 4 8 12 17 28 42 55 59 59 57 53 51 53 53 51 47 44 41 37 32 27 23 20 18 16 14 12 10 9 6 4 3 1 0 0 0 0 0 0 0 0
0 0 0 0 0 0 0 1 3 8 13 17 24 36 46 53 56 56 53 51 52 53 51 48 45 42 36 29 23 19 16 13 13 14 13 11 9 5 3 2 1 1 1 1 1 1 0 0 0
0 0 0 0 0 0 0 0 2 7 11 14 19 29 38 44 47 48 49 50 51 51 49 46 43 39 33 25 18 14 10 7 8 12 13 12 9 5 3 2 1 1 1 1 2 2 1 0 0
0 0 0 0 0 0 0 0 1 5 8 10 15 23 33 39 40 42 45 48 49 49 47 44 39 34 28 21 14 9 5 3 6 10 12 13 10 7 3 1 0 0 0 1 2 2 2 1 0
0 0 0 0 0 0 0 0 0 2 6 10 14 21 29 35 35 36 39 42 42 42 41 39 35 30 24 18 12 7 3 2 4 7 8 9 9 7 4 1 0 0 0 1 1 1 2 1 1
0 0 0 0 0 0 0 0 1 3 7 12 17 21 25 26 25 26 31 32 32 32 33 33 31 26 20 14 9 6 4 2 2 2 3 4 5 6 4 1 0 0 0 0 0 0 1 1 0
0 0 0 0 0 0 0 0 2 4 9 14 18 21 21 18 16 19 23 25 24 24 26 28 27 23 18 13 9 7 5 3 2 1 0 1 3 4 3 2 0 0 0 0 0 0 0 0 0
0 0 0 0 0 0 0 0 1 3 7 12 16 17 15 13 12 14 18 20 21 21 22 23 21 18 16 14 12 10 8 6 3 2 0 0 1 2 2 1 0 0 0 0 0 0 0 0 0
0 0 0 0 0 0 0 0 0 1 4 7 11 12 11 10 10 10 14 17 18 19 21 21 19 15 13 13 12 11 10 8 5 2 0 0 0 1 1 0 0 0 0 0 0 0 0 0 0
0 0 0 0 0 0 0 0 0 1 2 5 7 9 9 9 8 8 11 16 17 18 21 22 19 15 11 10 10 11 11 10 6 2 0 0 0 0 0 0 0 0 0 0 0 0 0 0 0
Wind_Speed
5 3 2 1 4 3 2 3 2 2 4 4 8 10 8 5 5 6 7 16 19 17 14 17 19 19 19 18 17 17 17 17 17 17 17 17 16 16 16 16 16 16 16 16 16 16 16 16 16
2 3 1 3 4 2 3 1 2 4 7 9 9 11 8 7 9 11 10 17 20 17 13 15 20 20 19 18 17 16 17 17 17 16 16 16 16 16 16 16 16 16 16 16 15 15 15 15 15
2 2 2 3 1 2 3 2 1 4 8 8 6 6 6 8 11 8 12 20 18 14 12 16 22 20 20 19 18 17 17 17 16 16 16 16 16 16 16 16 16 16 15 15 15 14 14 14 13
1 3 3 2 4 5 5 5 1 4 6 7 9 7 5 6 8 14 21 20 18 14 12 16 22 21 20 19 18 17 17 16 16 16 16 16 16 16 16 16 16 15 15 14 14 13 13 12 11
3 3 3 2 4 4 5 6 4 5 4 7 10 7 5 5 19 23 21 20 19 14 11 15 21 21 20 19 18 18 17 17 17 16 16 16 16 16 16 15 15 14 14 13 12 12 11 11 10
3 4 2 3 4 5 6 5 4 6 9 9 10 7 4 11 20 19 18 17 17 16 13 14 21 21 20 19 18 18 17 17 17 16 16 16 15 15 15 15 14 14 13 12 11 10 9 9 8
3 2 3 4 4 5 4 3 5 7 8 6 10 8 6 10 14 17 16 16 15 15 13 10 12 15 19 19 18 18 17 17 17 16 16 16 15 15 14 14 14 13 12 11 10 9 8 7 7
4 3 2 3 3 4 2 1 3 7 6 8 8 10 10 13 15 16 15 14 13 12 11 10 9 9 9 12 17 18 17 17 17 17 16 16 15 15 14 12 12 12 11 10 9 8 6 6 6
2 2 3 4 4 3 2 1 1 3 7 3 4 8 16 20 20 19 16 13 12 12 10 10 10 9 8 8 14 15 16 16 15 14 17 13 6 6 8 11 12 12 11 9 8 6 5 5 5
4 4 9 7 5 4 5 5 5 5 7 5 8 12 20 20 21 21 19 18 16 15 12 10 11 10 9 9 8 5 7 7 6 5 7 5 4 4 7 10 12 11 10 8 6 5 4 3 3
6 8 8 8 9 6 6 5 4 9 6 10 16 20 19 18 18 19 19 18 17 16 14 12 11 10 9 6 6 4 3 4 5 6 6 5 4 4 4 3 4 5 6 3 3 2 1 1 2
5 9 9 9 8 5 5 4 3 5 9 13 19 22 20 19 18 19 19 17 16 16 15 13 12 10 8 7 6 5 4 4 4 5 6 5 4 4 3 2 3 2 2 2 1 1 1 1 3
8 11 11 10 7 6 4 4 5 5 9 13 18 20 20 19 17 15 15 16 16 16 15 15 14 12 9 8 6 7 6 5 5 5 5 6 5 5 4 3 3 2 2 2 2 2 2 2 3
7 8 9 7 7 4 4 4 5 7 13 15 17 16 18 19 17 15 16 16 17 17 16 14 14 12 10 9 7 7 7 6 5 5 6 7 5 5 4 4 3 3 3 3 3 3 3 2 2
5 7 9 6 4 4 3 2 5 10 14 15 17 16 15 14 16 17 19 18 17 16 15 14 14 12 12 10 9 8 7 7 6 6 6 7 7 6 5 4 4 3 3 3 3 2 2 2 2
5 4 5 8 3 4 4 6 7 10 14 13 15 16 13 13 15 16 16 15 14 14 14 15 14 12 11 9 8 7 7 7 6 6 6 7 7 7 6 4 4 4 3 3 3 2 2 2 2
3 3 6 8 4 2 4 6 6 8 13 12 12 13 13 12 12 12 14 15 15 15 15 14 12 12 10 9 7 7 7 7 6 6 5 6 7 8 6 5 4 4 3 3 3 2 2 2 2
5 4 5 6 5 1 2 5 6 5 11 12 12 12 13 15 15 14 14 14 13 13 13 12 11 11 9 7 6 5 6 5 5 6 6 7 6 7 6 4 4 4 4 3 2 3 2 2 2
6 7 8 9 7 1 4 5 6 5 7 10 11 12 14 14 12 12 13 14 13 12 12 12 12 11 9 7 7 7 6 5 5 5 7 7 7 7 6 5 4 4 4 4 4 3 3 1 2
9 10 10 8 6 2 3 5 4 5 7 10 13 13 13 11 10 12 12 13 14 14 14 13 12 11 10 7 6 5 5 4 5 5 6 7 7 7 6 6 5 5 4 4 4 3 3 1 2
11 10 10 7 5 3 2 3 3 2 2 3 6 10 13 16 16 14 13 13 13 14 15 13 13 12 10 9 5 5 4 3 3 4 5 6 7 7 6 7 6 5 5 5 4 4 4 3 1
11 11 8 5 2 2 1 2 6 2 1 3 5 7 10 13 14 14 13 13 14 13 12 11 12 12 10 10 9 9 7 6 5 5 4 5 6 7 7 7 6 5 4 5 5 4 3 4 2
11 9 5 3 3 1 3 1 6 1 1 3 6 8 8 11 13 14 14 14 13 12 11 11 11 11 10 10 11 10 7 5 4 4 6 5 5 6 6 6 6 6 5 5 5 4 4 3 3
8 3 2 4 5 1 3 2 6 2 4 3 3 5 7 10 11 10 9 9 9 9 10 11 11 11 11 11 11 10 10 8 8 7 7 6 4 4 6 7 6 6 5 5 5 5 5 4 3
3 4 3 4 4 3 3 1 6 5 4 4 5 5 7 8 10 11 11 10 10 12 12 11 12 11 11 11 11 11 11 11 11 9 8 7 5 4 7 7 6 5 5 5 5 5 5 4 4
5 10 9 5 4 4 2 2 6 5 2 1 1 4 6 6 7 10 12 12 11 12 12 12 12 11 11 11 10 10 10 8 7 8 7 7 6 6 7 7 7 7 6 6 5 4 4 4 4
5 5 9 8 3 1 3 4 5 3 4 4 3 3 4 7 9 10 10 11 11 11 11 12 12 10 10 10 10 9 10 9 8 8 7 6 6 6 8 8 8 7 7 7 6 4 4 4 4
9 8 6 7 6 2 2 2 4 3 0 2 3 1 3 4 6 8 9 10 9 10 9 10 10 10 10 10 10 9 9 9 8 8 8 8 7 7 8 9 8 8 7 7 6 4 4 5 4
4 5 6 6 6 6 3 5 5 5 4 3 2 3 3 4 5 7 7 8 9 9 9 9 9 8 8 9 8 8 8 8 8 8 9 8 7 8 9 9 9 8 8 7 6 5 6 6 4
6 7 8 7 4 5 5 5 3 4 4 4 3 3 3 3 4 6 7 7 8 9 10 9 9 9 8 8 7 7 7 8 9 9 9 8 8 8 9 9 9 9 8 8 8 7 6 6 6
Wind_Direction
202 197 190 68 49 38 277 248 152 109 48 56 95 97 99 89 124 135 131 138 136 141 143 140 136 132 128 125 122 119 116 113 111 109 109 109 110 111 112 112 111 110 110 110 109 109 108 109 110
193 196 133 54 77 19 291 254 167 149 125 107 90 93 85 73 91 109 124 139 138 140 140 141 138 135 132 129 127 123 120 117 115 114 113 112 113 115 114 114 113 113 112 111 110 110 110 111 111
223 200 110 82 128 203 263 297 210 139 129 120 107 80 90 114 116 119 138 139 136 137 139 144 140 138 135 133 130 128 125 122 120 118 117 116 116 115 115 115 115 114 114 113 112 112 112 112 111
120 57 49 83 244 241 229 262 240 126 110 101 105 81 80 123 125 131 138 139 135 137 140 146 142 140 138 136 135 133 130 128 125 123 121 120 119 118 117 117 117 116 115 114 114 114 112 112 110
80 80 50 305 264 263 243 233 204 138 114 104 96 88 56 63 119 132 140 141 138 139 142 146 144 143 142 140 138 136 134 132 129 128 126 124 123 123 121 120 119 119 118 117 117 117 116 113 110
54 76 82 268 271 281 260 217 168 118 117 110 100 97 73 121 129 139 141 141 141 142 143 146 146 145 145 144 142 141 139 136 134 132 130 128 127 126 126 125 125 124 124 123 122 121 118 113 107
132 119 212 244 270 285 261 181 145 127 126 133 128 108 113 139 139 139 137 136 138 141 142 144 147 148 148 147 146 145 143 141 139 137 135 134 133 132 130 130 130 130 130 129 128 126 121 112 104
167 114 273 271 257 265 276 52 140 135 127 135 131 133 151 158 141 133 131 131 136 141 145 145 145 144 146 148 149 147 147 145 144 142 141 140 139 137 136 134 135 135 135 136 135 132 123 108 99
150 97 240 233 225 240 238 153 114 114 120 141 146 146 149 147 140 135 134 135 144 149 151 149 147 145 144 148 154 151 150 150 149 147 146 141 132 132 137 142 142 141 141 142 141 137 126 104 91
144 184 229 216 209 221 230 194 170 127 116 103 101 117 137 145 146 146 151 154 158 159 159 157 154 152 153 157 147 149 149 148 143 142 139 133 135 144 145 152 148 148 147 148 148 142 127 94 82
182 212 240 245 239 215 214 219 170 138 149 160 147 145 149 152 154 155 158 162 163 162 162 162 160 159 161 149 151 150 142 143 144 148 145 144 142 143 134 140 144 143 144 135 142 128 93 93 107
239 252 251 252 249 224 212 190 160 164 180 169 155 152 154 162 164 164 163 164 162 163 164 163 163 164 162 152 158 154 151 156 159 164 158 149 145 143 146 145 144 139 132 135 128 123 111 101 109
249 262 262 255 253 225 210 190 168 176 160 150 150 155 163 169 168 166 162 161 163 166 168 168 166 167 163 156 165 162 162 167 168 167 164 157 154 156 156 157 156 158 148 151 152 149 134 118 108
248 268 276 265 255 233 200 215 145 174 153 149 156 165 170 171 166 160 163 165 169 171 170 169 169 167 163 165 168 165 167 167 167 168 168 161 158 159 158 160 164 164 162 160 154 151 137 132 130
272 302 302 282 257 243 163 273 200 171 157 158 166 171 173 172 167 169 171 171 171 170 169 170 168 166 168 169 171 167 169 167 168 166 166 162 159 158 157 159 162 165 158 146 130 123 112 122 126
347 335 299 287 273 260 151 234 239 166 161 169 173 175 172 174 175 172 168 168 167 165 166 169 170 167 168 166 166 164 169 166 167 163 163 163 160 158 154 157 163 159 144 133 128 118 109 109 121
347 273 270 289 282 260 159 222 232 170 164 172 173 171 170 174 175 172 170 168 167 167 167 169 164 165 166 161 157 157 163 164 162 157 159 164 163 159 152 157 162 155 141 138 148 121 126 129 135
243 261 277 272 287 313 221 240 244 189 171 170 169 167 171 179 184 176 172 167 163 165 165 166 162 163 159 155 146 143 149 158 155 159 163 161 162 156 147 152 155 150 140 142 139 134 129 140 148
241 266 273 276 280 275 245 240 238 203 173 169 169 170 176 184 177 169 167 164 159 163 165 167 165 167 163 160 160 156 158 161 160 165 164 160 159 154 152 153 151 151 153 163 156 139 135 128 119
249 260 269 278 276 246 236 242 231 196 188 176 172 172 170 161 159 166 164 165 167 171 171 170 171 171 171 166 161 156 148 158 162 164 163 161 159 159 162 155 159 160 153 157 156 139 133 133 130
250 241 242 242 283 329 62 320 282 250 122 147 164 165 166 164 165 167 169 171 171 174 175 175 174 171 169 159 146 136 125 123 138 158 165 170 168 168 163 162 161 165 160 167 170 155 144 151 168
252 245 233 229 206 293 68 259 291 269 86 154 157 157 165 165 167 170 172 172 176 178 174 173 173 171 168 164 161 160 164 167 173 168 168 171 174 173 168 165 166 167 166 168 176 162 149 146 159
233 239 226 210 163 77 5 123 284 350 208 217 194 171 168 169 169 173 176 176 174 172 171 171 168 170 171 171 169 167 168 168 151 153 165 173 178 179 172 169 166 170 172 173 172 156 154 151 158
229 242 7 44 75 57 270 169 272 256 220 233 237 180 168 167 166 167 166 161 161 165 170 172 173 176 176 174 174 174 171 166 161 167 175 180 180 184 181 175 172 176 176 176 174 165 159 159 153
205 113 39 3 18 249 269 176 255 265 252 205 201 179 168 159 159 157 157 162 168 171 175 177 176 179 180 179 179 180 177 173 177 178 181 181 180 187 191 181 175 177 178 174 166 162 161 163 161
196 145 157 183 207 261 317 241 265 284 300 357 139 147 152 156 164 165 166 172 176 176 176 175 179 180 182 183 183 180 178 177 181 182 179 184 188 192 185 179 177 177 175 174 164 158 166 165 168
179 174 165 137 147 127 285 292 308 351 29 37 66 114 158 177 177 169 170 175 176 177 178 177 178 180 184 185 181 181 181 180 180 180 180 182 187 188 181 179 176 178 176 172 163 165 170 166 173
169 159 106 117 143 194 269 271 244 262 348 43 47 133 188 178 173 168 170 178 179 177 174 173 175 182 184 184 186 186 183 181 178 177 185 186 189 188 176 179 178 176 174 171 166 164 171 169 177
146 122 116 124 146 150 195 260 228 196 173 161 189 205 178 181 180 173 176 177 173 171 171 174 176 178 182 185 187 184 181 179 176 180 188 188 188 187 183 181 180 178 177 173 169 174 172 176 184
144 154 139 141 173 155 157 252 283 165 163 165 183 205 186 173 181 176 171 173 170 171 174 177 179 181 185 183 184 186 182 179 180 183 187 185 184 183 182 178 181 183 182 178 176 182 181 180 185